Regional Weather Roundup
Issued by NWS

Home | Current Version | Previous Version | Text Only | Print | Product List | Glossary On
Versions: 1 2 3 4 5 6 7 8 9 10 11 12 13 14 15 16 17 18 19 20 21 22 23 24 25 26 27 28 29 30 31 32 33 34 35 36 37 38 39 40 41 42 43 44 45 46 47 48 49 50
000
ASUS42 KTBW 250610
RWRFL
FLORIDA REGIONAL WEATHER ROUNDUP
NATIONAL WEATHER SERVICE TAMPA BAY RUSKIN FL
100 AM EST THU DEC 25 2014

NOTE: "FAIR" INDICATES FEW OR NO CLOUDS BELOW 12,000 FEET WITH NO
SIGNIFICANT WEATHER AND/OR OBSTRUCTIONS TO VISIBILITY.


FLZ001>010-012>015-112-114-115-250700-
PANHANDLE FLORIDA

CITY           SKY/WX    TMP DP  RH WIND       PRES   REMARKS
PENSACOLA      MOCLDY    47  36  65 NW12      30.08R WCI  42
MILTON NAS     CLOUDY    47  36  65 NW13G20   30.07R WCI  41
CRESTVIEW      CLOUDY    50  43  77 NW8       30.06S
DUKE FIELD     MOCLDY    50  43  77 NW10      30.05R
VALPARAISO     CLOUDY    51  44  78 NW10      30.05S
MARY ESTHER    CLOUDY    50  39  66 NW9       30.05R
PANAMA CITY    FAIR      53  45  74 W8        30.02R
TYNDALL AFB    CLOUDY    55  55  99 NW9       30.03S
APALACHICOLA   MOCLDY    57  48  72 N5        30.02R

STATION/POSITION SKY/WX   TEMP    WIND        PRES    WAVE   SWELL
                          AIR SEA DIR/SP/G            HT/PER HT/PER
                          (F)     (DEG/KT/KT) (MB)    (FT/S) (FT/S)
30.1N   87.6W              52 68  330/ 21/ 25 1017.8R   5/ 6   2/ 8
29.2N   88.2W              53 72  310/ 19/ 25 1019.3R   7/ 8
28.7N   86.0W              64 74  280/ 16/ 19 1017.2R   8/ 8
PANAMA CITY BEAC           54 61  300/ 11/ 16 1016.6R
CAPE SAN BLAS    NOT AVBL
TOWER C                    57     350/ 10/ 12 1016.4R
28.5N   84.5W              66 73  290/ 19/ 23 1016.0F   9/ 8   5/12

$$
FLZ011-016>038-118-127-128-134-139-239-250700-
NORTH FLORIDA

CITY           SKY/WX    TMP DP  RH WIND       PRES   REMARKS
MARIANNA       CLOUDY    52  49  89 W8        30.01R
TALLAHASSEE    CLOUDY    54  48  80 W7        30.01S
PERRY          CLOUDY    56  51  83 NW7       30.01R
CROSS CITY       N/A     58  53  84 W9        30.00R
LAKE CITY      CLOUDY    59  55  88 W12       29.97R
GAINESVILLE    CLOUDY    59  51  75 W15G22    29.97R
MAYPORT NAS    CLOUDY    64  53  67 W9        29.91S
JACKSONVILLE   CLOUDY    62  55  77 W10       29.91R
JAX NAS        CLOUDY    65  51  60 W14       29.94R
JAX CRAIG      CLOUDY    64  51  62 W10       29.92R
JAX CECIL      CLOUDY    61  55  82 SW8       29.94S
FERNANDINA BEA CLOUDY    68  55  64 W13G18    29.90S
ST AUGUSTINE   MOCLDY    63  55  75 W9G21     29.94S

STATION/POSITION SKY/WX   TEMP    WIND        PRES    WAVE   SWELL
                          AIR SEA DIR/SP/G            HT/PER HT/PER
                          (F)     (DEG/KT/KT) (MB)    (FT/S) (FT/S)
SHELL POINT                55     300/  9/ 12   N/A
KEATON BEACH               57     290/ 16/ 20 1016.2R
CEDAR KEY                  60     310/ 11/ 14 1016.4R
FERNANDINA                 63 62  250/ 12/ 18 1012.2F
30.7N   81.3W                 61                N/A     4/ 6
MAYPORT                    64 62  270/ 12/ 16   N/A
31.4N   80.9W              62 59  250/ 16/ 17 1011.1R   4/ 7
ST AUGUSTINE               63     260/ 12/ 16 1014.2R

$$
FLZ040-043>046-052-053-057-058-063-144-250700-
INTERIOR CENTRAL FLORIDA

CITY           SKY/WX    TMP DP  RH WIND       PRES   REMARKS
OCALA          CLOUDY    61  55  82 W9        29.99R
THE VILLAGES     N/A     63  61  94 W8        29.87F
LEESBURG       MOCLDY    64  61  90 W12       29.98R
SANFORD        CLOUDY    65  62  90 W7        29.96R
ORLANDO EXEC   CLOUDY    65  61  87 W8        29.96S
ORLANDO INTL   MOCLDY    65  65 100 W7        29.97S
WINTER HAVEN   MOCLDY    65  61  87 W7        29.99S
LAKELAND       CLOUDY    63  61  94 W6        29.99S
BARTOW         MOCLDY    64  63  94 W6        29.99S
OKEECHOBEE     TSTM      68  66  94 NW12G20   29.99R

$$
FLZ041-047-054-059-064-141-147-250700-
EAST CENTRAL FLORIDA

CITY           SKY/WX    TMP DP  RH WIND       PRES   REMARKS
DAYTONA BEACH  PTCLDY    64  62  93 SW8       29.94F
DELAND         MOCLDY   N/A N/A N/A SW7       29.96R
JFK SPACE CTR  PTCLDY    64  61  89 W6        29.95S
CAPE CANAVERAL PTCLDY    65  62  90 W9        29.95F
PATRICK AFB    PTCLDY    66  63  90 W10       29.96S
MELBOURNE      CLOUDY    66  63  90 W12       29.96S
VERO BEACH     LGT RAIN  69  66  90 W16G28    29.97R
FT PIERCE      TSTM      72  69  90 W18G28    29.96R FOG
STUART         CLOUDY    73  72  94 S8        29.96S

STATION/POSITION SKY/WX   TEMP    WIND        PRES    WAVE   SWELL
                          AIR SEA DIR/SP/G            HT/PER HT/PER
                          (F)     (DEG/KT/KT) (MB)    (FT/S) (FT/S)
28.5N   80.2W              70 76  300/ 25/ 31 1013.7R
28.9N   78.5W              78 76  200/ 21/ 25 1013.3S   7/ 6   2/10
TRIDENT PIER               66 69  290/  6/ 11 1013.9S
28.4N   80.5W                 67                N/A     3/ 6
27.6N   80.2W                 76                N/A     3/ 5

$$
FLZ050-056-061-142-242-148-248-149-249-151-251-155-255-
160-260-250700-
WEST CENTRAL FLORIDA

CITY           SKY/WX    TMP DP  RH WIND       PRES   REMARKS
CRYSTAL RIVER  CLOUDY    61  55  82 W7        29.98F
INVERNESS      CLOUDY    63  59  88 CALM      29.98F
BROOKSVILLE    CLOUDY    63  59  87 W10       29.99F
ZEPHYRHILLS    MOCLDY    63  61  94 CALM      29.99S
CLEARWATER     CLOUDY    65  63  93 NW14G20   29.98F
TAMPA INTL     PTCLDY    65  60  84 NW9       29.99S
TAMPA EXEC     PTCLDY    64  61  88 CALM      29.99S
PLANT CITY     CLOUDY    66 N/A N/A NW5       30.00S
MACDILL AFB    MOCLDY    64  64 100 NW7       29.99S
PETER O KNIGHT PTCLDY    68  63  83 NW3       29.99R
ST PETERSBURG  PTCLDY    67  61  81 NW6       29.97F
SARASOTA       CLOUDY    67  62  84 NW10      29.98S
VENICE         CLOUDY    68  63  83 NW6       30.00S

STATION/POSITION SKY/WX   TEMP    WIND        PRES    WAVE   SWELL
                          AIR SEA DIR/SP/G            HT/PER HT/PER
                          (F)     (DEG/KT/KT) (MB)    (FT/S) (FT/S)
CEDAR KEY                  60     310/ 11/ 14 1016.4R
28.5N   84.5W              66 73  290/ 19/ 23 1016.0F   9/ 8   5/12
27.3N   84.3W                 75                N/A     7/ 8
CLEARWATER BEACH           66 69  300/ 15/ 16 1015.3F
MIDDLE TAMPA BAY           67     320/ 15/ 16 1015.7S
VENICE                     68 69  320/  8/  9 1015.4S

$$
FLZ066-069-070-075>078-162-262-165-265-250700-
SOUTHWEST FLORIDA AND KEYS

CITY           SKY/WX    TMP DP  RH WIND       PRES   REMARKS
PUNTA GORDA    MOCLDY    67  60  78 NW6       30.01S
FT MYERS       MOCLDY    67  64  90 N6        29.99F
SOUTHWEST INTL PTCLDY    67  64  90 NW6       30.00S
NAPLES         MOCLDY    68  64  87 NW9       30.01R
MARCO ISLAND   CLOUDY    70  64  83 NW10G16   29.99F
MARATHON       TSTM      73  73 100 SW7       30.00S VSB 1
KEY WEST NAS   LGT RAIN  78  75  90 S17       29.99S
KEY WEST INTL  MOCLDY    78  76  93 S15G21    29.99S

STATION/POSITION SKY/WX   TEMP    WIND        PRES    WAVE   SWELL
                          AIR SEA DIR/SP/G            HT/PER HT/PER
                          (F)     (DEG/KT/KT) (MB)    (FT/S) (FT/S)
VENICE                     68 69  320/  8/  9 1015.4S
NAPLES                     69 77  340/ 17/ 19 1016.6R
26.0N   85.6W              68 74  320/ 14/ 17 1017.0R   7/ 8   5/ 8
DRY TORTUGAS               73     360/ 23/ 25 1015.6R
NW FL BAY                  73     240/ 14/ 15 1015.9R
SAND KEY                   78     190/ 18/ 21 1015.3F
SOMBRERO KEY               75     230/ 14/ 15 1016.2F
LONG KEY                   73 76  290/ 11/ 13 1017.1R
MOLASSES REEF              77 78  210/ 18/ 19 1015.6S

$$
FLZ067-068-071>074-168-172>174-250700-
SOUTHEAST FLORIDA

CITY           SKY/WX    TMP DP  RH WIND       PRES   REMARKS
W PALM BEACH   CLOUDY    78  73  84 S12       29.95S
FT LAUDER-EXEC CLOUDY    77  73  87 S10       29.97S
FT LAUDERDALE  CLOUDY    77  75  93 S12       29.96F
POMPANO BEACH  CLOUDY    78  72  81 S9        29.96F
PEMBROKE PINES CLOUDY    78  74  87 S13       29.98S
OPA LOCKA      CLOUDY    77  74  90 S15       29.97F
MIAMI          CLOUDY    78  74  87 S10       29.98F
WEST KENDALL   LGT RAIN  78  74  87 S10       29.99S
HOMESTEAD      LGT RAIN  77  73  88 S16G22    29.99S

STATION/POSITION SKY/WX   TEMP    WIND        PRES    WAVE   SWELL
                          AIR SEA DIR/SP/G            HT/PER HT/PER
                          (F)     (DEG/KT/KT) (MB)    (FT/S) (FT/S)
PORT EVERGLADES            78     180/  7/ 13 1014.7
VIRGINIA KEY               77 76  190/ 12/ 14 1015.4F
LAKE WORTH                 78 77  190/ 17/ 21 1014.3R
SETTLEMENT POINT           78     190/ 17/ 24 1015.9R

$$




USA.gov is the U.S. government's official web portal to all federal, state and local government web resources and services.